Regional Weather Roundup
Issued by NWS

Home | Current Version | Previous Version | Text Only | Print | Product List | Glossary On
Versions: 1 2 3 4 5 6 7 8 9 10 11 12 13 14 15 16 17 18 19 20 21 22 23 24 25 26 27 28 29 30 31 32 33 34 35 36 37 38 39 40 41 42 43 44 45 46 47 48 49 50
000
ASUS46 KLOX 280613
RWRCA

SOUTHERN CALIFORNIA WEATHER ROUNDUP
NATIONAL WEATHER SERVICE OXNARD CALIFORNIA
1100 PM PDT MON JUL 27 2015

NOTE: "FAIR" INDICATES FEW OR NO CLOUDS BELOW 12,000 FEET WITH NO
SIGNIFICANT WEATHER AND/OR OBSTRUCTIONS TO VISIBILITY.

  -  STATIONS PRECEEDED BY AN ASTERISK (*) ARE NOT NWS OR FAA
     STATIONS AND ARE NOT SUBJECT TO NWS AND FAA QUALITY CONTROL.

CAZ041-042-087-280700-
LA AND ORANGE COUNTY COASTAL AREAS


CITY           SKY/WX    TMP DP  RH WIND       PRES   REMARKS
L.A. DOWNTOWN  CLEAR     68  63  84 CALM      29.90S
L.A. AIRPORT   MOCLDY    68  64  87 W6        29.91S
LONG BEACH     CLEAR     70  63  78 NW7       29.90S

CITY           SKY/WX    TMP DP  RH WIND       PRES   REMARKS
AVALON           N/A     66 N/A N/A MISG        N/A
FULLERTON      CLEAR     72  63  73 S3        29.89S
HAWTHORNE      CLOUDY    70  63  78 W8        29.91S
*LOS ALAMITOS  FAIR      68  65  89 W5        29.90S
*REDONDO BEACH   N/A     67  62  82 W2        29.91S
SANTA ANA      PTCLDY    69  64  84 SW5       29.90F
STA MONICA APT PTCLDY    67  63  87 SW5       29.91S
*UCLA            N/A     64  61  88 W3        29.88S

$$

CAZ547-548-048-280700-
LA COUNTY VALLEYS AND INLAND EMPIRE


CITY           SKY/WX    TMP DP  RH WIND       PRES   REMARKS
BURBANK        CLEAR     71  59  65 S3        29.90S
VAN NUYS       CLEAR     71  58  63 SE3       29.90S

CITY           SKY/WX    TMP DP  RH WIND       PRES   REMARKS
CORONA AIRPORT CLEAR     68  59  73 CALM      29.91S
CHINO          CLEAR     69  59  70 CALM      29.92S
MARCH AFB      CLEAR     68  58  69 W3        29.93S
*NORTHRIDGE      N/A     70  55  60 E1          N/A
ONTARIO        CLEAR     71  58  63 SW5       29.91S
*PASADENA        N/A     70  63  78 CALM        N/A
RIVERSIDE      CLEAR     71  58  63 CALM      29.92R
SAN BERNARDINO NOT AVBL
*SAN GABRIEL     N/A     70  63  79 SW5       29.97S
*WHITEMAN AP   NOT AVBL
*WOODLAND HILL   N/A     68  57  68 CALM        N/A

$$

CAZ054-055-280700-
LA AND SAN BERNARDINO COUNTY MOUNTAINS


CITY           SKY/WX    TMP DP  RH WIND       PRES   REMARKS
*BIG BEAR AIRP CLEAR     50  36  57 CALM      30.21S
SANDBERG       CLEAR     68  35  29 N14G24    30.08S

$$

CAZ028-029-059-060-099-280700-
ANTELOPE VALLEY AND SURROUNDING AREAS


CITY           SKY/WX    TMP DP  RH WIND       PRES   REMARKS
LANCASTER      CLEAR     73  48  41 SW9       29.93R
PALMDALE       CLEAR     72  54  53 SW10      29.95S

CITY           SKY/WX    TMP DP  RH WIND       PRES   REMARKS
BARSTOW/DAGGET CLEAR     84  46  26 W15       29.87R
BISHOP         CLEAR     76  24  14 NW10      30.03R
CHINA LAKE     CLEAR     81  38  21 SE8       29.86S
EDWARDS AFB    CLEAR     74  45  35 SW14      29.90R
MOJAVE         CLEAR     77  41  27 W20       29.92S
NEEDLES        CLEAR     95  21   7 SW9       29.76S
VICTORVILLE    CLEAR     73  50  43 CALM      29.97S

$$

CAZ039-040-280700-
VENTURA AND SANTA BARBARA COUNTY COAST


CITY           SKY/WX    TMP DP  RH WIND       PRES   REMARKS
CAMARILLO      CLEAR     65  59  81 CALM      29.89F
OXNARD AIRPORT CLEAR     66  60  81 NW3       29.90S
*POINT MUGU    PTCLDY    66  60  81 NW3       29.90S
SBA APT/GOLETA CLEAR     65  60  84 CALM      29.88S
*SANTA BARBARA   N/A     67  60  76 CALM      29.96F
*VENTURA         N/A     66  58  77 CALM      29.50S

$$

CAZ044-045-280700-
VENTURA COUNTY VALLEYS


CITY           SKY/WX    TMP DP  RH WIND       PRES   REMARKS
*SIMI VALLEY     N/A     65  60  83 CALM      29.85F
*OJAI            N/A     62  58  86 CALM      29.84S
*FILLMORE        N/A     65  58  79 SW2       29.81S

$$

CAZ053-280700-
VENTURA COUNTY MOUNTAINS


CITY           SKY/WX    TMP DP  RH WIND       PRES   REMARKS

$$

CAZ034-035-036-280700-
CENTRAL COAST AND SANTA YNEZ VALLEY


CITY           SKY/WX    TMP DP  RH WIND       PRES   REMARKS
SAN LUIS OBISP CLEAR     59  56  89 CALM      29.92S
SANTA MARIA    CLOUDY    62  58  86 S6        29.93S

CITY           SKY/WX    TMP DP  RH WIND       PRES   REMARKS
*CAL POLY SLO    N/A     59  57  94 CALM        N/A
*LOMPOC        CLOUDY    63  54  72 NW6       29.94S
*PISMO BEACH     N/A     61  58  90 SE2       29.92S
*SANTA YNEZ    FAIR      57  54  88 SW3       29.93S

$$

CAZ037-038-051-280700-
SAN LUIS OBISPO COUNTY INTERIOR AND CUYAMA VALLEY


CITY           SKY/WX    TMP DP  RH WIND       PRES   REMARKS
*CUYAMA          N/A     71  47  41 W2        29.84S
PASO ROBLES    CLEAR     73  49  42 NW7       29.90R

$$

CAZ032-033-061-280700-
SOUTHERN DESERTS


CITY           SKY/WX    TMP DP  RH WIND       PRES   REMARKS
BLYTHE         CLEAR     92  31  11 W9        29.74R
IMPERIAL       CLEAR     83  50  31 W12       29.72R
PALM SPRINGS   CLEAR     89  53  29 NW13      29.77R
THERMAL        CLEAR     89  54  30 NW13      29.71R

$$

ELSEWHERE ACROSS THE WESTERN UNITED STATES AND MEXICO


CITY           SKY/WX    TMP DP  RH WIND       PRES   REMARKS
DENVER, CO     PTCLDY    75  35  23 SW12      29.94R
GRAND CANYON,  CLEAR     48  20  32 E3        30.24R
HONOLULU, HI   PTCLDY    82  70  65 E8        29.94R
KAHULUI, MAUI  PTCLDY    81  72  74 E7        29.94R
LAKE TAHOE, CA CLEAR     56  35  45 VRB3      30.22S
LAS VEGAS, NV  PTCLDY    91  31  11 S6        29.79R
MAMMOTH LAKES, FAIR      59  23  25 W9        30.26R
MEXICO CITY, M CLEAR     64  52  63 NW7       30.36R
PHOENIX, AZ    PTCLDY    98  57  25 W14       29.78R HX  97
PORTLAND, OR   CLEAR     65  52  62 NW9       30.23S
RENO, NV       CLEAR     72  29  20 W5        30.13R
SALT LAKE CITY CLEAR     62  39  42 N9        30.14R
SAN DIEGO, CA  PTCLDY    68  60  75 W5        29.93S
SAN FRANCISCO, CLEAR     61  53  75 W12       29.91S
SAN JOSE, CA   CLEAR     67  56  67 W3        29.90F
SEATTLE, WA    PTCLDY    66  51  58 CALM      30.24S
TIJUANA, MEX   CLEAR     64  57  77 W6        29.94S

$$

STATION/POSITION TIME  TEMP    WIND        PRES    VSBY  WAVE
                       AIR SEA DIR/SP/G                  HT/PER
                 (UTC) (F)     (DEG/KT/KT) (MB)    (MI)  (FT/S)
POINT ARGUELLO B NOT AVBL
WEST SANTA BARBA 0550   61 61  310/ 17/ 21 1011.9F         7/ 9
POINT CONCEPTION NOT AVBL
EAST SANTA BARBA 0600   65 67   50/  4/  6 1012.3S
SANTA MONICA BAY 0550   66 71  260/  8/ 10 1012.5R         3/17



USA.gov is the U.S. government's official web portal to all federal, state and local government web resources and services.